DECAYED
Showing default

HAIWANGXING 01 (NEPTUNE), 59677 (Decayed)

Orbit data source: Space-Track

HAIWANGXING 01 (NEPTUNE), 59677 was a Chinese payload satellite in LEO that was launched on Tue, 07 May 2024 UTC via a CHANG ZHENG 6C launch vehicle from the Taiyaun Space Center, China (TSC). Payload-class satellites include a variety of spacecraft equipped with specific instruments for various scientific and technological missions. These include communications satellites like Starlink; space stations such as the ISS; scientific satellites like the Hubble; Earth observation satellites from companies like Planet Labs, Umbra, and HawkEye 360; GPS; miniature CubeSats for education and research; and military/defense satellites.

Not visible in the next 10 days
Identifier
59677, 2024-085A
Orbit
Decayed
Last TLE update
3 months ago
Origin
Manufacturer
SAST
Mission
Decayed spacecraft
Bus & Motor
HWX, Unknown motor
Mass
239 kg wet, ~239 kg dry
Launch date (UTC)
2024-05-07 (1 year ago)
Launch vehicle
CHANG ZHENG 6C
Launch site
Taiyaun Space Center, China (TSC)
Object type
Payload
Rocket body
Debris
Shape & HBR
Unknown
Radar Cross Section
Large (>1 m²)

Expand to show TLE details & history

TLE from 3 months ago
0 HAIWANGXING 01 (NEPTUNE)
1 59677U 24085A   25087.75342935  .29817615  25160-5  69315-3 0  9998
2 59677  97.3281 172.1165 0011504 275.3276 181.9815 16.45520891 50135
Epoch: 2025-03-28T18:04Z
TLE epoch observation values (Epoch: 2025-03-28T18:04:56.295Z)
Latitude
79.71897°
Longitude
-60.70392°
Altitude
172.005 km
Speed
7.805 km/s
True Right ascension
02h 27m 45s
True Declination
79° 39' 11"
Sunlit
Object was in daylight at epoch
Visualization orbit readout
Visualization observer readout
Orbital elements
Apogee altitude
155.462 km
Perigee altitude
140.447 km
Semi-major axis
6,526.091 km
Eccentricity
0.00115
Inclination
97.3281°
RAAN
172.1165°
Arg. of periapsis
275.3276°
True anomaly
Unknown
Mean anomaly
181.9815°
Eccentric anomaly
Unknown
Mean motion
4.11683 °/min
Orbital period
87.45 mins
BSTAR
0.00069315
Loading maneuver chart data...
Loading SW <> Apogee altitude chart data...
Loading historical data...
Loading historical data...
Loading historical data...
Loading historical data...
Loading historical data...
Loading historical data...
Loading historical data...
Other satellites on launch #85 in the year 2024 (2024-05-07 UTC)

HAIWANGXING 01 (NEPTUNE) Visibility

Observer location: undefined°, undefined°

This satellite is decayed
Span
Click to sort rows by Start time (UTC) header in descending order
Start Az.
Max El. time (UTC)
Max El. Az.
Max El.
End time (UTC)
End Az.
|